Find Starlink 11146

NORAD ID: 60729 Int'l Des: 2024-152 Owner: SPXS Country: US Constellation: starlink operational
LEOCIRCULAR

現在のビュー

3D地球を読み込み中...

About Starlink 11146

Starlink 11146 (NORAD 60729) is a starlink constellation satellite (v2 mini d2c) launched Aug 28, 2024 by SPXS of US. It operates in LEO, CIRCULAR orbit with a mass of 960.00 kg.

Starlink 11146について

説明を読み込み中...

次回通過

Passes for default location (London). Set your location on the main map for personalized predictions.

高度履歴

Loading altitude history...

軌道要素

1 60729U 24152K 26173.14526562 -.00000790 00000-0 -16705-5 0 9990
2 60729 53.1589 321.1206 0000594 58.1018 302.0057 15.69713484105374
Epoch: Jun 22, 2026 • Age: 31 hours

現在のステータス

高度 360.5 km
速度 7.70 km/s
衛星直下点 26.00°N, 88.29°W
打ち上げ日 Aug 28, 2024
運用期間 1.8 years
タイプ internet

技術仕様

分類 Payload
質量 960.00 kg
乾燥質量 910.00 kg
総質量 960.00 kg
長さ 0.30 m
直径 4.10 m
スパン 29.00 m
形状 Box + pan
製造者 SPXS
バスタイプ Starlink V2MD
フェーズステータス In Orbit
所有者/国 SPXS/US

Most Searched